CAPE
1639 1362 1408 1444 1187 1249 1250 1104 983 754 685 812 813 594 783 741 423 419 590 331 393 477
1458 1533 1389 1350 1247 1234 1194 834 812 670 864 774 700 745 739 416 557 506 376 515 377 398
1183 1178 1309 1227 1091 919 1063 500 876 907 839 788 641 637 621 548 997 446 266 204 483 471
1226 755 1195 837 974 990 718 790 541 520 901 703 591 458 548 702 337 227 150 132 101 147
682 698 923 929 983 875 492 563 557 502 605 400 605 872 500 434 605 517 299 156 124 105
910 949 987 1014 952 855 746 377 272 281 257 483 602 519 452 422 374 393 241 164 168 110
1177 796 981 997 868 897 339 289 264 480 430 469 264 170 216 227 339 384 221 145 304 61
825 875 834 802 797 788 166 241 159 456 341 190 34 56 283 286 330 457 292 160 195 3
660 559 833 695 897 930 725 665 470 539 166 197 0 0 0 0 322 424 245 193 15 0
653 514 691 666 644 752 905 695 526 439 343 6 0 0 0 0 445 276 275 158 127 70
485 462 570 325 860 987 932 729 690 556 174 8 0 0 0 0 358 261 245 167 149 40
500 636 609 709 1039 1214 862 483 203 391 203 4 0 0 0 6 291 242 160 136 92 16
558 634 911 884 1062 1099 946 443 280 74 47 0 0 1 0 0 135 39 1 3 0 0
747 860 1108 1155 1033 1117 823 280 47 53 13 71 3 0 1 0 121 113 12 7 1 0
CIN
-1 -2 -2 -3 -5 -5 -1 -2 -7 -12 -9 -2 -1 -8 -7 -7 -16 -14 -15 -27 -23 -27
-2 -2 -5 -0 -1 -3 -2 -9 -4 -6 -0 -0 -2 -7 -11 -27 -10 -20 -34 -15 -20 -26
-15 -17 -8 -1 -3 -3 -7 -9 -10 -2 -1 -1 -2 -4 -13 -16 -4 -29 -50 -49 -4 -10
-18 -17 -11 -5 -2 -3 -1 -5 -6 -15 -1 -2 -6 -11 -16 -14 -39 -42 -49 -36 -40 -41
-28 -35 -16 -4 -2 -4 -3 -22 -10 -18 -6 -14 -7 -2 -2 -11 -7 -18 -21 -35 -40 -20
-24 -11 -2 -3 -5 -11 -21 -11 -19 -19 -8 -12 -6 -4 -11 -6 -17 -8 -29 -28 -25 -16
-10 -19 -4 -3 -4 -3 -25 -17 -26 -16 -6 -5 -10 -15 -4 -2 -4 -8 -24 -20 -10 -57
-20 -9 -13 -3 -3 -5 -20 -20 -32 -7 -11 -7 -67 -2 -4 -3 -3 -12 -10 -13 -4 -75
-10 -5 -9 -9 -4 -7 -11 -18 -13 -10 -7 -7 -0 -0 -0 -0 -7 -6 -9 -0 -55 -0
-8 -0 -11 -5 -3 -3 -8 -21 -18 -13 -4 -9 -0 -0 -0 -0 -4 -12 -5 -2 -1 -3
-8 -1 -1 -23 -2 -5 -5 -9 -10 -9 -14 -34 -0 -0 -0 -0 -8 -8 -6 -5 -1 -1
-3 -1 -6 -4 -2 -1 -8 -23 -25 -11 -13 -10 -0 -0 -0 -53 -10 -4 -1 -3 -1 -3
-9 -20 -3 -17 -3 -2 -3 -6 -9 -18 -18 -1 -0 -0 -0 -0 -12 -10 -37 -17 -0 -0
-18 -23 -13 -12 -13 -2 -1 -2 -5 -8 -33 -10 -1 -0 -0 -0 -23 -6 -26 -0 -0 -0
Wind_Speed
6 4 2 3 2 3 3 3 4 4 3 4 4 4 4 3 2 3 3 5 6 3
5 5 4 4 3 3 4 4 4 5 3 2 3 5 5 2 3 4 2 1 2 1
6 5 4 3 4 2 4 3 7 4 3 3 3 3 4 3 4 4 1 2 2 3
5 5 5 3 3 3 1 6 5 5 4 4 4 3 4 4 4 4 2 1 2 4
5 7 5 4 5 4 3 5 4 6 5 6 5 3 1 4 4 5 4 3 1 2
7 5 5 5 5 6 5 4 4 4 3 9 5 5 4 4 4 2 3 2 2 7
6 6 5 5 4 3 7 5 5 5 8 6 6 3 3 3 1 2 4 4 5 7
7 5 5 5 4 3 6 6 8 8 9 4 4 4 3 3 2 4 6 5 7 6
7 7 6 6 5 3 3 6 7 9 7 3 6 8 9 7 3 5 7 7 8 6
10 8 8 7 7 7 6 7 7 7 6 8 6 8 9 9 3 5 6 7 8 7
10 8 5 7 7 7 6 6 6 5 9 8 4 7 9 9 5 6 6 6 9 9
10 9 6 8 8 7 6 4 6 6 10 8 4 8 8 7 5 8 8 7 9 10
10 11 7 9 8 6 5 5 5 8 7 8 5 5 6 6 5 8 7 8 10 12
10 9 9 9 6 6 7 8 8 8 5 6 5 3 5 8 6 6 7 7 7 6
Wind_Direction
135 185 121 90 16 110 160 138 205 174 170 206 188 185 196 189 191 217 234 268 227 271
141 141 129 127 94 146 118 164 162 121 180 165 191 210 173 160 187 110 67 325 283 253
130 119 140 134 142 136 147 149 115 130 134 135 182 162 138 160 146 143 128 321 17 343
139 145 144 148 115 126 135 120 131 136 132 169 149 118 136 137 135 134 175 105 11 47
156 121 129 157 134 156 188 137 170 175 169 165 94 92 127 168 181 153 191 184 111 159
116 121 131 138 162 193 179 171 172 130 105 78 98 68 50 93 102 140 208 90 150 147
112 148 150 133 190 197 160 145 123 110 83 89 76 80 79 65 82 210 101 83 83 72
126 147 150 157 146 257 135 157 115 99 88 88 103 54 50 76 48 95 94 93 96 92
149 136 147 141 140 126 74 73 107 109 113 203 84 54 43 11 79 94 115 107 100 103
142 137 156 150 138 120 100 99 102 120 123 98 98 67 37 15 87 102 98 108 114 100
137 140 129 134 125 121 129 133 138 146 116 106 107 57 30 352 96 99 100 107 109 113
148 135 151 121 128 126 123 130 130 111 117 115 128 46 20 359 91 87 81 87 109 97
141 143 143 136 131 141 123 125 108 83 89 106 114 50 16 1 90 102 98 85 86 98
154 136 136 121 127 135 139 127 126 119 120 114 126 91 18 18 115 124 112 107 107 108